TimeEDT,TemperatureF,Dew PointF,Humidity,Sea Level PressureIn,VisibilityMPH,Wind Direction,Wind SpeedMPH,Gust SpeedMPH,PrecipitationIn,Events,Conditions,WindDirDegrees,DateUTC
12:15 AM,42.8,37.4,81,30.15,10.0,Calm,Calm,-,N/A,,Clear,0,2013-03-31 04:15:00
12:35 AM,42.8,37.4,81,30.15,10.0,Calm,Calm,-,N/A,,Clear,0,2013-03-31 04:35:00
12:55 AM,42.8,37.4,81,30.15,10.0,Calm,Calm,-,N/A,,Clear,0,2013-03-31 04:55:00
1:15 AM,44.6,39.2,81,30.14,10.0,Calm,Calm,-,N/A,,Clear,0,2013-03-31 05:15:00
1:35 AM,44.6,39.2,81,30.13,10.0,Calm,Calm,-,N/A,,Clear,0,2013-03-31 05:35:00
1:55 AM,44.6,39.2,81,30.13,10.0,Calm,Calm,-,N/A,,Partly Cloudy,0,2013-03-31 05:55:00
2:15 AM,44.6,39.2,81,30.12,10.0,Calm,Calm,-,N/A,,Partly Cloudy,0,2013-03-31 06:15:00
2:35 AM,46.4,41.0,81,30.11,10.0,Calm,Calm,-,N/A,,Scattered Clouds,0,2013-03-31 06:35:00
2:55 AM,46.4,41.0,81,30.10,10.0,SSE,3.5,-,N/A,,Partly Cloudy,160,2013-03-31 06:55:00
3:15 AM,48.2,41.0,76,30.10,10.0,Calm,Calm,-,N/A,,Clear,0,2013-03-31 07:15:00
3:35 AM,46.4,39.2,76,30.09,10.0,South,3.5,-,N/A,,Clear,180,2013-03-31 07:35:00
3:55 AM,46.4,41.0,81,30.08,10.0,SSE,3.5,-,N/A,,Partly Cloudy,160,2013-03-31 07:55:00
4:15 AM,46.4,39.2,76,30.07,10.0,Calm,Calm,-,N/A,,Scattered Clouds,0,2013-03-31 08:15:00
4:35 AM,44.6,41.0,87,30.07,10.0,ESE,4.6,-,N/A,,Partly Cloudy,120,2013-03-31 08:35:00
4:55 AM,46.4,42.8,87,30.06,10.0,Calm,Calm,-,N/A,,Clear,0,2013-03-31 08:55:00
5:15 AM,46.4,42.8,87,30.05,10.0,Calm,Calm,-,N/A,,Partly Cloudy,0,2013-03-31 09:15:00
5:35 AM,50.0,44.6,82,30.05,10.0,SE,5.8,-,N/A,,Partly Cloudy,140,2013-03-31 09:35:00
5:55 AM,51.8,44.6,76,30.04,10.0,South,3.5,-,N/A,,Scattered Clouds,170,2013-03-31 09:55:00
6:15 AM,51.8,46.4,82,30.04,10.0,South,5.8,-,N/A,,Mostly Cloudy,170,2013-03-31 10:15:00
6:35 AM,51.8,46.4,82,30.05,10.0,SSW,3.5,-,N/A,,Mostly Cloudy,210,2013-03-31 10:35:00
6:55 AM,51.8,46.4,82,30.05,10.0,Calm,Calm,-,N/A,,Scattered Clouds,0,2013-03-31 10:55:00
7:15 AM,51.8,48.2,88,30.04,10.0,Calm,Calm,-,N/A,,Clear,0,2013-03-31 11:15:00
7:35 AM,51.8,48.2,88,30.04,10.0,Calm,Calm,-,N/A,,Clear,0,2013-03-31 11:35:00
7:55 AM,51.8,48.2,88,30.05,8.0,Calm,Calm,-,N/A,,Partly Cloudy,0,2013-03-31 11:55:00
8:15 AM,51.8,48.2,88,30.04,8.0,Calm,Calm,-,N/A,,Clear,0,2013-03-31 12:15:00
8:35 AM,51.8,50.0,94,30.04,10.0,Calm,Calm,-,N/A,,Partly Cloudy,0,2013-03-31 12:35:00
8:55 AM,53.6,50.0,88,30.03,10.0,SSE,4.6,-,N/A,,Scattered Clouds,160,2013-03-31 12:55:00
9:15 AM,55.4,51.8,88,30.02,10.0,SSW,3.5,-,N/A,,Mostly Cloudy,200,2013-03-31 13:15:00
9:35 AM,55.4,51.8,88,30.03,10.0,SSW,4.6,-,N/A,,Scattered Clouds,200,2013-03-31 13:35:00
9:55 AM,57.2,53.6,88,30.02,10.0,SSW,4.6,-,N/A,,Partly Cloudy,200,2013-03-31 13:55:00
10:15 AM,60.8,53.6,77,30.01,10.0,South,8.1,-,N/A,,Partly Cloudy,190,2013-03-31 14:15:00
10:35 AM,62.6,55.4,77,30.00,10.0,SW,8.1,-,N/A,,Clear,220,2013-03-31 14:35:00
10:55 AM,62.6,53.6,72,30.00,10.0,SSW,13.8,-,N/A,,Scattered Clouds,210,2013-03-31 14:55:00
11:15 AM,64.4,53.6,68,29.99,10.0,SSW,11.5,-,N/A,,Mostly Cloudy,210,2013-03-31 15:15:00
11:35 AM,66.2,53.6,64,29.99,10.0,SSW,13.8,20.7,N/A,,Mostly Cloudy,210,2013-03-31 15:35:00
11:55 AM,69.8,53.6,56,29.98,10.0,SW,10.4,19.6,N/A,,Partly Cloudy,220,2013-03-31 15:55:00
12:15 PM,71.6,53.6,53,29.96,10.0,SSW,12.7,21.9,N/A,,Clear,200,2013-03-31 16:15:00
12:35 PM,71.6,51.8,50,29.96,10.0,SW,13.8,28.8,N/A,,Partly Cloudy,220,2013-03-31 16:35:00
12:55 PM,73.4,51.8,47,29.94,10.0,SW,13.8,21.9,N/A,,Scattered Clouds,220,2013-03-31 16:55:00
1:15 PM,75.2,51.8,44,29.93,10.0,SSW,16.1,23.0,N/A,,Scattered Clouds,210,2013-03-31 17:15:00
1:35 PM,73.4,48.2,41,29.91,10.0,SW,19.6,28.8,N/A,,Scattered Clouds,230,2013-03-31 17:35:00
1:55 PM,73.4,48.2,41,29.90,10.0,SW,11.5,25.3,N/A,,Mostly Cloudy,230,2013-03-31 17:55:00
2:15 PM,75.2,50.0,41,29.88,10.0,SSW,17.3,25.3,N/A,,Mostly Cloudy,210,2013-03-31 18:15:00
2:35 PM,75.2,50.0,41,29.87,10.0,SW,18.4,27.6,N/A,,Scattered Clouds,220,2013-03-31 18:35:00
2:55 PM,73.4,51.8,47,29.87,10.0,SW,23.0,31.1,N/A,,Mostly Cloudy,230,2013-03-31 18:55:00
3:15 PM,73.4,51.8,47,29.87,10.0,SW,19.6,27.6,N/A,,Mostly Cloudy,220,2013-03-31 19:15:00
3:35 PM,71.6,53.6,53,29.87,10.0,SW,16.1,19.6,N/A,,Mostly Cloudy,220,2013-03-31 19:35:00
3:55 PM,71.6,53.6,53,29.86,10.0,SW,13.8,21.9,N/A,,Mostly Cloudy,220,2013-03-31 19:55:00
4:15 PM,73.4,53.6,50,29.84,10.0,SSW,19.6,24.2,N/A,,Mostly Cloudy,200,2013-03-31 20:15:00
4:35 PM,71.6,53.6,53,29.85,10.0,SW,16.1,21.9,N/A,,Overcast,220,2013-03-31 20:35:00
4:55 PM,71.6,53.6,53,29.85,10.0,SW,17.3,20.7,N/A,,Overcast,230,2013-03-31 20:55:00
5:15 PM,71.6,53.6,53,29.85,10.0,SSW,13.8,19.6,N/A,,Overcast,210,2013-03-31 21:15:00
5:35 PM,71.6,53.6,53,29.85,10.0,SSW,12.7,20.7,N/A,,Mostly Cloudy,210,2013-03-31 21:35:00
5:55 PM,69.8,53.6,56,29.86,10.0,SSW,11.5,-,N/A,,Mostly Cloudy,210,2013-03-31 21:55:00
6:15 PM,69.8,53.6,56,29.86,10.0,SSW,16.1,-,N/A,,Overcast,200,2013-03-31 22:15:00
6:35 PM,69.8,53.6,56,29.87,10.0,SSW,11.5,-,N/A,,Mostly Cloudy,200,2013-03-31 22:35:00
6:55 PM,68.0,53.6,60,29.86,10.0,SSW,13.8,-,N/A,,Partly Cloudy,200,2013-03-31 22:55:00
7:15 PM,66.2,53.6,64,29.86,10.0,South,13.8,-,N/A,,Clear,190,2013-03-31 23:15:00
7:35 PM,64.4,53.6,68,29.87,10.0,South,12.7,-,N/A,,Clear,190,2013-03-31 23:35:00
7:55 PM,64.4,53.6,68,29.87,10.0,South,9.2,-,N/A,,Clear,190,2013-03-31 23:55:00
8:15 PM,62.6,53.6,72,29.87,8.0,South,10.4,-,N/A,,Clear,190,2013-04-01 00:15:00
8:35 PM,62.6,53.6,72,29.87,10.0,South,9.2,-,N/A,,Partly Cloudy,190,2013-04-01 00:35:00
8:55 PM,62.6,53.6,72,29.87,10.0,South,12.7,-,N/A,,Clear,190,2013-04-01 00:55:00
9:15 PM,62.6,53.6,72,29.87,10.0,South,13.8,19.6,N/A,,Clear,190,2013-04-01 01:15:00
9:35 PM,62.6,53.6,72,29.88,10.0,SSW,15.0,20.7,N/A,,Mostly Cloudy,200,2013-04-01 01:35:00
9:55 PM,62.6,53.6,72,29.90,10.0,SSW,13.8,20.7,N/A,,Mostly Cloudy,210,2013-04-01 01:55:00
10:15 PM,60.8,55.4,82,29.93,7.0,WSW,9.2,-,0.02,,Mostly Cloudy,240,2013-04-01 02:15:00
10:35 PM,59.0,55.4,88,29.90,7.0,South,18.4,29.9,0.07,,Overcast,190,2013-04-01 02:35:00
11:15 PM,59.0,55.4,88,29.89,10.0,SSW,11.5,-,N/A,,Mostly Cloudy,210,2013-04-01 03:15:00
11:35 PM,59.0,55.4,88,29.88,10.0,SSW,13.8,-,N/A,,Mostly Cloudy,200,2013-04-01 03:35:00